Theta_e
310 310 310 310 310 310 310 310 310 310 310 310 310 310 310 311 311 312 313 313 314 315 315 315 315 315 316 316 316 315 314 314 314 314 314 315 316 316 317 318 319 318 319 319 320 319 318 318 317 317 318 319 318 321 323 322 322 322 324 324 323 324 324 324 324 322 322 322 319 317 318 318 318 318 317 317 317 317 317 317 317 317 316 316 316 315 316 316
310 310 310 310 310 310 310 310 310 310 310 310 309 310 310 310 310 310 311 311 312 312 313 314 315 315 315 315 316 316 316 315 315 315 315 316 316 316 316 318 319 318 318 318 319 319 318 318 318 318 318 320 321 321 323 323 321 323 325 325 324 325 323 322 321 320 320 320 319 318 318 317 318 317 316 316 316 316 316 316 316 316 316 316 316 315 315 315
310 310 310 310 310 310 310 310 310 310 309 309 310 309 310 310 310 310 310 310 310 311 311 312 312 314 314 314 315 316 316 316 316 316 316 317 316 316 315 317 319 319 318 318 318 318 318 319 319 319 318 319 321 322 323 323 321 321 323 324 325 324 322 321 320 320 319 319 318 318 318 317 318 318 316 316 316 316 316 316 316 316 316 316 315 315 314 314
310 310 310 310 310 310 310 310 310 310 310 310 309 309 309 309 310 310 310 310 310 310 310 310 311 311 312 313 314 315 316 317 318 319 319 318 317 316 315 316 318 319 318 318 317 317 317 318 319 318 318 318 320 322 323 322 322 321 321 323 323 322 321 321 319 319 318 318 317 317 318 317 317 317 316 316 317 317 316 317 317 316 317 316 316 315 315 314
310 310 310 310 310 310 310 310 310 310 310 310 310 309 309 310 309 310 310 310 310 310 310 310 310 310 310 311 313 314 317 320 322 321 320 319 318 317 316 315 315 317 318 318 317 317 317 317 318 318 318 319 319 322 322 322 322 321 321 321 321 320 320 320 318 318 317 317 316 316 317 317 317 317 316 316 316 317 317 317 318 317 317 317 316 316 316 315
310 310 310 310 310 311 310 311 311 311 311 310 310 310 310 310 310 310 310 310 310 310 310 310 310 310 310 310 311 313 316 320 321 319 318 318 318 317 316 315 314 315 317 318 317 317 317 318 318 318 318 319 320 321 322 322 321 320 320 320 320 320 320 319 318 317 317 316 315 316 316 317 317 317 317 316 316 316 317 318 318 318 318 318 317 317 316 316
310 310 310 311 311 311 311 311 311 312 312 311 311 311 311 311 311 311 311 311 311 311 311 310 311 310 310 310 310 312 315 316 316 316 316 316 317 317 316 314 314 314 315 316 317 317 317 318 319 319 319 319 320 320 321 321 319 319 319 318 319 319 319 319 317 316 316 315 315 316 316 316 316 317 317 316 316 316 316 317 317 317 318 317 317 317 316 316
310 310 311 311 311 311 312 312 312 312 312 312 312 312 312 312 312 312 312 312 312 312 312 312 312 311 311 310 310 314 317 316 315 316 317 316 316 317 316 314 313 313 314 315 316 316 317 318 318 319 320 320 320 320 320 319 318 318 318 319 319 319 318 318 317 316 315 315 315 315 314 314 316 316 316 316 316 317 317 317 317 317 317 317 317 316 316 316
310 310 310 311 311 311 311 312 312 313 313 313 313 312 313 313 313 313 313 313 313 313 313 313 313 312 312 310 312 317 319 319 319 318 317 316 316 316 316 315 314 314 314 315 315 316 317 317 318 319 319 319 319 319 319 318 319 318 318 318 318 318 318 318 317 316 315 314 315 315 314 314 315 315 315 316 316 316 316 316 317 316 316 316 316 316 315 315
310 310 310 310 310 311 311 311 312 312 313 313 313 313 313 313 314 314 314 314 314 314 313 314 313 313 312 311 315 318 319 320 319 317 315 314 315 316 316 316 316 315 314 315 315 315 316 317 318 319 318 317 318 319 319 318 318 317 317 316 316 316 317 317 317 317 316 315 315 314 314 314 315 315 315 316 316 317 316 316 316 316 316 316 315 315 315 315
310 310 310 310 310 310 310 311 311 312 312 312 313 313 312 313 313 314 314 314 314 314 314 314 313 313 312 312 316 318 317 318 317 315 314 313 313 314 315 317 317 316 315 314 315 315 315 316 317 317 317 317 318 319 319 318 317 317 316 316 315 316 316 316 317 317 316 315 315 314 314 314 315 315 315 316 316 317 317 316 316 316 316 316 315 315 314 314
313 312 312 312 311 311 311 311 311 311 311 312 312 312 312 312 312 313 314 314 314 314 314 314 313 312 312 312 315 317 316 316 316 315 314 313 313 314 315 316 316 316 315 314 315 315 315 315 316 316 317 318 318 318 318 317 316 316 315 315 315 316 316 317 316 316 316 316 315 314 314 315 315 314 315 316 316 316 317 316 316 316 316 316 315 315 314 314
314 314 314 314 314 314 313 313 312 312 312 312 312 312 312 311 312 312 313 314 314 314 314 313 313 312 312 314 315 315 316 316 315 315 314 313 313 313 314 315 316 316 315 314 315 315 315 315 315 316 317 317 318 318 317 316 316 316 315 315 316 316 317 317 317 317 316 315 315 314 315 316 316 315 316 317 316 315 316 316 316 316 316 316 315 315 314 314
312 313 313 314 314 314 314 314 314 314 314 314 313 313 313 312 312 312 313 313 313 314 313 313 313 312 313 314 315 316 315 315 315 315 314 313 313 313 314 315 316 316 315 314 314 314 314 314 314 315 316 316 317 316 316 316 316 316 316 317 317 317 318 318 317 317 316 314 314 315 315 316 316 316 316 318 317 316 315 315 315 316 316 316 315 315 314 314
311 311 311 311 312 312 312 312 313 314 314 315 315 314 314 314 313 313 313 313 313 313 313 313 313 313 315 316 315 316 316 315 315 315 314 313 313 314 314 314 315 315 315 315 314 314 314 314 314 315 316 316 316 316 316 317 317 316 317 319 320 319 319 319 317 316 316 314 313 315 316 315 316 316 317 318 317 316 315 315 315 315 315 315 315 315 314 314
313 312 311 311 311 310 310 310 310 311 311 312 313 314 315 314 314 314 314 313 314 314 313 314 314 314 315 316 316 316 316 316 316 315 315 314 313 314 314 315 315 314 314 314 313 314 313 314 315 316 316 315 316 317 317 319 319 318 318 319 321 320 319 320 317 315 315 314 313 314 316 316 316 317 317 318 317 316 315 315 315 315 315 315 315 315 314 314
315 314 314 313 312 311 311 311 310 310 310 310 310 311 312 313 314 315 314 314 314 314 313 314 316 316 315 315 316 316 317 316 316 316 315 315 314 314 315 315 314 314 313 313 313 313 313 314 315 316 316 316 316 317 320 321 320 320 320 319 320 320 319 320 318 315 314 315 314 314 314 315 316 316 316 317 317 316 315 315 316 316 315 315 315 315 315 314
317 316 316 316 315 314 313 313 313 312 312 311 310 310 310 310 311 312 314 314 314 314 314 313 315 316 316 316 316 316 317 317 316 316 315 315 314 314 315 314 314 314 313 313 314 314 314 315 316 317 317 316 316 317 320 321 319 319 320 318 318 319 318 319 319 316 315 315 315 314 314 314 314 315 315 316 316 315 315 316 316 316 316 316 316 315 315 315
315 315 316 316 316 316 315 315 315 315 315 314 313 311 310 309 310 311 313 314 314 316 316 315 315 317 317 317 317 316 316 316 315 315 315 315 315 315 314 314 314 315 314 315 316 314 315 316 318 320 319 317 316 317 318 319 318 318 319 318 318 318 318 318 318 316 315 315 315 314 314 314 314 315 315 315 316 316 315 316 316 316 316 316 315 315 315 315
313 313 313 314 314 315 315 315 315 316 316 316 315 313 311 312 314 316 315 315 315 316 317 316 316 317 317 317 317 316 316 315 314 314 314 315 315 314 314 313 314 315 315 317 318 315 316 318 320 320 318 317 317 317 317 318 318 318 318 319 319 319 317 317 318 317 315 315 316 315 315 315 315 316 315 315 316 316 315 315 315 315 315 316 315 316 316 315
313 313 312 312 312 313 313 313 314 314 315 315 315 313 312 312 315 316 314 314 314 315 315 315 316 316 316 317 317 316 316 315 315 314 314 314 314 313 313 313 315 317 315 316 319 317 318 319 319 318 317 317 318 318 318 318 318 318 319 320 319 319 317 316 318 316 315 316 316 316 316 316 315 316 316 316 316 316 315 315 315 316 316 316 315 315 316 316
314 314 313 312 312 311 311 311 311 312 313 314 314 313 311 310 311 312 311 312 312 312 313 314 315 315 315 315 315 315 315 314 314 314 314 314 313 313 314 313 315 317 316 316 318 319 319 319 318 317 317 317 317 318 319 319 319 320 321 321 319 318 317 317 318 316 313 315 316 316 316 315 316 316 316 316 316 316 316 316 316 316 316 315 316 315 315 316
315 315 314 313 312 312 311 311 310 310 311 312 313 313 311 310 310 309 309 311 311 310 311 312 314 314 314 314 314 314 313 313 313 314 314 314 313 313 314 314 314 316 317 316 316 319 319 319 317 317 317 317 317 317 319 318 319 320 319 319 317 317 318 318 317 315 312 314 316 316 315 315 315 315 315 315 315 315 316 316 316 316 316 315 315 315 315 316
315 315 314 314 313 312 313 312 311 311 311 311 312 312 311 310 309 309 310 312 312 311 310 310 312 313 313 313 314 313 313 313 313 314 314 314 314 313 313 314 314 315 316 315 316 318 318 318 317 318 318 318 318 318 321 319 317 319 321 318 317 318 318 318 319 317 315 315 315 315 315 315 315 316 316 316 316 315 315 315 316 316 316 316 315 316 316 317
315 315 315 314 314 314 313 313 312 312 311 311 311 311 310 309 309 309 311 312 313 313 312 313 313 313 313 313 313 314 313 313 313 313 314 314 314 314 313 314 315 315 315 315 317 318 318 317 318 320 321 321 321 319 322 322 318 317 320 320 318 318 318 319 321 322 322 320 316 316 317 317 319 319 318 318 318 318 315 315 315 315 315 316 315 316 316 316
314 315 315 315 315 315 314 314 314 312 311 312 312 311 310 310 311 311 312 314 314 315 315 314 315 314 313 314 314 313 313 313 313 313 314 314 314 314 314 314 315 315 315 316 316 317 319 318 318 321 321 322 324 320 321 323 318 316 322 326 321 319 322 323 323 323 325 324 318 317 319 318 318 318 318 319 320 320 317 317 316 314 315 315 315 315 315 316
315 314 315 316 316 316 316 316 315 313 312 312 312 311 310 311 311 311 312 315 316 317 316 315 315 315 315 314 314 313 313 313 313 314 314 314 314 314 314 314 314 314 315 317 317 318 320 319 319 321 321 323 323 319 320 321 318 319 325 327 322 320 323 324 324 324 324 321 318 319 320 319 317 316 318 319 319 319 317 317 317 314 314 315 315 315 315 316
317 316 316 317 317 317 317 317 316 314 312 311 310 311 310 310 310 310 313 316 318 319 317 314 313 314 315 314 313 313 311 312 315 314 313 313 313 314 314 313 314 314 314 316 317 319 322 322 322 322 321 322 320 319 322 321 319 321 322 322 321 321 321 320 321 322 321 318 319 321 319 319 318 316 318 318 316 317 316 316 316 314 313 314 314 315 314 316
319 318 318 318 318 318 317 317 317 315 313 310 310 311 310 309 309 311 314 315 318 318 316 314 314 314 314 313 313 312 311 311 313 313 311 312 313 312 313 312 313 314 314 314 315 319 321 318 318 321 321 320 318 320 324 325 321 319 320 320 320 319 318 318 318 318 318 317 318 321 319 318 318 316 318 318 316 317 316 316 316 314 313 314 314 315 315 315
321 320 319 319 319 319 318 318 317 317 316 311 310 310 309 310 311 313 315 315 317 317 313 312 314 314 313 313 313 312 311 310 310 310 310 311 312 311 311 312 312 314 316 317 317 317 315 311 311 318 318 316 318 316 315 319 319 316 318 318 319 319 317 316 316 316 318 318 317 320 319 317 317 318 318 318 317 317 317 316 315 314 313 314 315 315 315 314
324 322 321 320 320 319 318 318 317 319 317 311 310 309 309 312 313 314 317 316 316 317 314 313 314 314 313 314 316 313 312 311 309 310 311 310 311 311 311 313 313 314 317 317 317 316 315 312 313 316 314 312 318 317 311 312 314 316 317 316 318 321 318 317 316 316 318 318 318 320 319 317 318 318 318 318 317 316 317 316 316 316 315 314 315 315 315 315
325 324 323 321 320 320 319 318 318 319 317 311 309 310 311 313 314 313 315 315 317 318 317 317 316 315 314 316 319 315 313 314 310 310 312 311 312 311 311 314 315 316 318 317 316 318 318 316 315 316 313 312 318 319 313 311 313 318 318 316 319 320 319 320 319 320 320 318 319 321 320 318 317 316 317 318 317 316 317 315 315 317 315 314 316 316 316 316
325 325 324 322 321 321 320 320 319 319 318 312 309 310 312 314 314 315 314 315 319 319 318 320 318 317 318 317 319 318 317 317 312 310 314 314 313 313 313 314 316 319 321 319 318 321 323 320 316 316 314 313 316 317 316 316 315 315 317 318 321 321 319 320 322 323 322 319 319 319 321 321 318 317 318 317 316 316 315 315 315 315 315 315 316 316 316 317
324 323 324 323 322 322 321 321 320 319 318 312 309 311 313 313 315 318 317 316 318 319 320 321 319 318 319 319 320 321 320 320 315 312 315 316 315 315 315 314 315 318 320 319 318 321 323 320 318 318 317 314 314 314 316 320 315 312 315 318 320 321 319 319 321 322 321 321 319 316 321 323 317 318 320 317 316 314 313 315 315 315 316 315 316 317 317 317
323 322 322 322 322 321 321 321 320 319 317 313 311 312 312 312 314 316 317 316 317 318 318 318 319 320 320 320 321 321 319 320 318 315 315 316 316 316 316 314 314 316 317 318 319 319 319 319 319 317 316 314 314 315 316 321 320 314 315 317 317 319 318 317 320 319 318 321 320 317 321 321 315 316 318 316 317 315 313 314 314 315 315 315 317 317 317 316
323 322 321 321 321 321 321 321 320 318 316 312 311 312 312 312 313 315 316 315 316 318 317 317 320 322 320 321 322 322 319 320 319 317 317 316 315 316 316 316 315 314 316 318 320 319 317 320 321 315 313 312 311 313 316 319 320 316 316 318 318 319 319 318 320 319 317 319 318 316 319 318 314 316 317 315 316 316 315 315 314 314 314 315 316 317 316 316
322 321 320 320 320 321 321 321 320 318 314 312 312 313 313 313 313 313 314 314 314 316 317 317 320 321 319 319 322 323 320 319 319 319 318 318 317 316 316 317 316 315 315 316 318 321 317 318 320 316 315 312 306 308 313 314 315 318 319 318 318 319 319 318 319 320 320 319 318 316 317 316 315 317 318 316 315 315 316 316 315 314 313 313 315 316 315 315
321 320 320 320 320 320 320 320 320 316 312 311 313 314 315 314 312 311 312 312 312 314 315 316 318 320 319 317 320 323 320 318 319 318 318 319 319 318 317 317 317 315 314 314 317 321 319 317 319 315 315 312 306 309 314 312 312 317 317 315 316 320 320 319 318 319 319 318 316 317 317 315 315 316 316 316 315 314 315 315 315 315 314 312 313 315 315 314
319 319 318 319 320 319 320 320 318 314 311 311 312 314 315 314 313 312 312 312 312 312 313 314 314 316 317 316 317 321 319 317 319 318 317 317 318 319 318 317 319 316 314 315 316 318 318 317 318 314 311 312 310 312 317 316 313 312 311 312 314 316 319 320 318 317 317 316 315 316 316 315 315 315 315 316 316 315 314 314 315 315 314 312 313 314 314 314
317 317 317 319 319 318 319 318 315 312 311 311 312 313 314 313 313 313 313 313 313 312 312 313 313 312 314 314 314 317 318 319 319 317 316 316 316 319 319 317 320 319 315 315 316 316 317 317 316 314 310 312 313 312 314 316 315 312 312 313 313 312 314 316 317 316 316 316 315 316 315 315 315 315 317 318 315 314 315 316 317 316 312 312 313 313 313 314
315 316 317 318 318 318 318 316 312 311 311 311 311 312 312 313 313 313 313 313 313 312 311 312 312 311 312 313 312 313 316 318 320 318 317 317 315 317 318 317 320 320 318 318 317 316 318 317 316 315 313 314 315 313 313 314 315 314 313 313 313 313 314 314 315 316 315 315 315 315 315 315 315 316 318 317 316 316 317 317 318 315 311 312 313 313 313 314
313 315 317 317 317 317 317 313 311 311 311 311 312 312 312 312 313 313 313 313 313 312 311 311 311 311 311 312 312 312 313 314 316 317 317 316 315 316 317 317 318 318 318 319 318 316 318 318 316 316 315 315 316 316 314 314 315 315 315 314 313 313 313 315 315 315 315 315 315 316 316 315 315 317 316 315 316 316 315 316 318 314 311 313 313 312 313 313
312 314 316 316 316 317 316 313 311 311 310 311 311 312 312 313 313 314 314 314 314 313 313 313 311 311 311 312 312 311 311 312 312 313 314 314 314 314 313 314 316 316 315 317 316 315 316 317 315 314 315 316 316 315 313 311 312 313 315 316 314 313 313 314 314 314 315 316 315 315 315 315 316 318 316 315 316 315 312 313 315 313 312 314 313 313 313 312
311 313 314 314 314 315 316 315 313 312 311 311 311 311 312 312 313 314 314 314 314 314 314 314 314 313 312 313 313 312 312 313 312 312 312 312 312 311 310 310 312 315 313 312 313 313 314 316 315 314 315 315 315 314 312 311 311 312 313 315 315 315 314 315 314 313 314 315 315 315 314 314 315 318 318 317 316 315 313 312 312 311 311 313 313 312 312 312
309 311 312 312 313 314 315 316 316 314 312 311 311 311 311 312 312 313 313 314 314 314 314 314 314 314 314 313 313 313 314 314 313 312 311 311 311 311 310 309 309 311 309 307 309 311 313 315 315 314 315 315 315 315 314 314 314 311 312 314 314 315 315 315 314 314 314 314 314 314 313 313 313 315 315 315 314 314 313 312 311 311 311 312 312 312 312 312
308 311 312 312 312 313 314 314 315 315 314 312 311 311 311 311 312 312 312 313 314 313 314 314 312 312 313 313 313 313 313 313 313 312 311 311 312 311 309 308 308 308 307 307 308 309 311 314 314 313 314 314 314 315 314 314 313 312 313 313 313 314 314 314 314 314 314 314 314 314 313 313 313 313 313 312 313 313 312 312 312 311 311 311 312 311 312 311
307 310 312 312 311 311 312 312 312 313 314 314 312 312 312 312 312 312 312 313 313 313 314 314 312 312 312 312 312 312 312 312 312 311 311 312 312 311 309 308 308 308 308 308 307 309 311 312 313 313 313 313 314 313 313 312 312 312 313 313 313 313 313 314 314 313 313 314 314 314 314 314 313 312 312 312 312 312 313 312 312 311 311 312 311 311 311 311
304 308 310 311 311 311 312 312 312 313 313 314 314 313 313 313 312 312 313 313 313 314 314 314 313 312 313 313 313 313 313 313 312 312 311 311 311 311 310 309 309 309 309 309 308 310 312 311 312 313 312 312 313 312 311 312 312 312 312 312 313 313 313 313 313 312 313 314 313 313 313 314 313 312 312 313 312 312 312 312 312 312 312 311 311 311 311 310
302 304 307 307 307 308 308 308 309 311 312 313 313 313 313 314 314 313 313 313 314 314 314 315 314 313 313 313 313 313 313 314 314 313 312 312 312 311 311 311 311 309 309 310 309 310 311 311 312 312 312 312 312 311 311 311 312 312 312 312 312 312 312 312 312 312 312 312 312 312 313 313 312 312 312 312 312 312 312 312 312 311 311 311 310 310 310 310
301 302 303 302 302 302 304 305 306 308 309 310 311 312 312 313 314 314 313 314 315 314 314 314 314 314 314 313 313 313 313 314 315 315 314 314 313 312 312 313 314 311 308 310 310 308 310 313 312 312 312 312 312 311 311 311 312 312 312 311 311 311 312 312 312 312 312 312 312 312 312 312 311 311 311 311 311 311 311 311 311 311 311 311 310 310 310 309
299 300 300 299 299 300 302 305 306 307 307 308 310 310 310 311 312 313 313 313 314 314 314 314 314 314 314 313 313 313 312 312 313 314 314 314 314 314 313 312 314 313 308 308 310 309 309 312 312 312 313 312 312 312 311 311 311 311 311 311 311 311 312 312 312 312 312 312 312 313 313 312 311 311 311 311 311 311 311 311 311 311 311 311 310 310 310 310
297 297 298 298 299 300 301 303 304 305 307 308 309 309 309 310 310 311 312 312 313 314 313 313 313 314 314 314 314 313 313 312 313 312 312 313 313 313 313 311 312 313 310 308 309 308 308 310 311 312 313 313 313 313 312 312 312 312 312 311 311 311 311 311 312 312 311 312 312 313 313 312 311 312 311 311 311 311 311 311 310 310 310 310 310 309 309 310
Wind_Speed
6 5 5 5 6 6 6 6 7 7 7 7 7 7 7 7 6 6 6 7 7 8 7 7 7 7 8 9 10 11 11 13 13 14 16 13 10 10 8 7 6 4 3 1 1 2 1 3 3 5 6 7 7 7 9 7 6 4 2 3 4 5 5 1 1 2 1 0 2 6 8 5 4 7 10 9 11 13 11 12 13 13 15 17 17 17 18 17
7 7 7 7 7 7 7 7 8 8 8 8 8 8 7 7 7 7 6 6 7 8 8 8 8 8 8 9 10 11 12 14 15 18 19 15 13 12 10 9 7 6 4 4 3 1 2 5 4 6 8 8 8 8 8 6 7 6 3 3 5 5 3 1 3 4 2 3 2 4 7 6 5 6 8 5 7 14 12 14 16 15 16 19 22 22 23 22
9 9 8 8 8 9 9 9 9 9 9 9 9 9 9 9 8 8 7 7 7 7 8 8 8 9 9 9 9 10 12 14 17 22 20 17 16 14 13 12 9 8 6 5 4 2 5 7 5 8 10 10 10 10 8 7 6 8 5 3 6 3 5 5 4 3 3 4 5 5 5 7 8 6 7 5 7 10 12 14 15 18 23 24 25 26 26 26
10 10 10 9 9 9 10 10 10 10 10 11 11 11 11 10 10 10 10 9 9 8 8 8 8 9 9 9 9 9 10 11 15 19 17 15 16 15 15 14 11 10 8 7 5 4 5 5 4 7 11 10 13 11 7 9 7 6 7 4 6 2 4 6 3 1 2 2 5 8 5 5 10 9 9 7 5 7 13 19 20 23 27 26 28 29 28 28
10 10 10 10 10 10 10 11 11 11 11 11 11 12 12 12 11 12 12 11 11 10 10 10 9 9 9 9 9 7 6 5 5 7 8 8 11 14 16 15 13 12 10 9 7 5 5 4 4 6 9 9 11 9 7 15 12 4 7 11 14 9 4 3 1 2 3 3 6 8 7 7 9 11 14 11 7 10 13 15 19 24 26 24 27 28 28 28
11 11 10 10 10 10 11 11 12 12 12 12 12 12 12 12 12 12 13 13 12 12 11 11 11 10 10 9 9 7 5 3 3 5 7 7 8 12 15 16 14 13 12 10 8 6 5 4 5 7 8 7 8 8 10 16 14 5 8 13 18 16 8 4 3 6 6 6 7 7 8 10 9 10 15 17 19 24 18 10 12 16 19 21 24 27 28 27
12 12 12 11 11 11 11 12 12 12 12 12 12 13 13 13 13 13 13 14 14 14 13 13 13 13 12 11 10 9 10 13 15 15 16 14 11 10 13 16 14 13 13 12 9 6 6 6 9 10 9 7 8 10 8 10 11 6 7 11 16 14 10 8 7 9 9 8 10 9 8 9 10 9 12 20 29 32 25 18 17 15 15 17 21 25 26 26
15 14 14 13 13 13 13 13 13 13 13 13 13 14 14 14 14 14 14 14 15 15 15 15 15 15 13 11 10 9 13 18 19 19 18 16 13 12 13 15 15 14 13 13 10 7 8 9 12 12 7 6 6 6 2 5 8 8 8 12 12 9 9 10 11 12 12 12 12 10 10 13 16 12 14 26 31 29 26 22 23 22 20 20 22 24 25 26
17 17 16 16 15 15 15 15 15 15 15 14 14 14 15 15 15 15 15 16 16 16 17 16 17 16 14 11 7 7 12 15 15 16 15 14 13 13 14 16 15 15 14 13 11 9 9 9 10 8 5 7 10 9 4 3 5 5 8 11 9 10 11 12 13 14 12 14 12 9 12 16 20 14 16 33 36 30 27 23 24 24 23 24 25 27 28 29
19 19 19 18 18 18 17 17 17 17 17 16 16 15 16 16 17 17 17 18 18 18 18 17 18 17 14 11 4 5 10 11 11 12 13 13 13 13 16 17 17 16 14 12 11 11 11 9 10 8 8 9 10 11 7 4 4 5 8 11 13 16 19 17 16 16 14 14 14 12 10 15 17 9 12 28 26 22 26 26 26 25 25 26 26 28 30 30
21 21 21 21 21 20 20 20 20 19 19 19 18 18 18 18 18 18 18 19 19 20 19 19 19 16 14 11 7 9 14 14 13 14 15 15 14 14 14 15 16 16 15 12 12 12 13 13 12 10 8 5 6 9 8 7 8 9 8 10 14 18 22 21 18 18 15 11 16 16 8 12 10 6 18 31 20 13 19 22 25 27 28 28 26 27 29 30
24 24 24 23 23 23 22 22 22 22 21 21 20 20 20 20 19 19 20 20 20 20 20 20 19 16 13 11 15 18 19 19 18 18 19 18 17 15 14 13 14 15 15 13 13 14 13 14 13 10 7 5 6 7 5 5 7 8 5 6 12 13 15 19 19 20 16 7 14 13 4 10 9 12 31 39 26 17 17 18 21 25 28 29 28 27 29 30
27 27 27 26 26 26 25 25 24 24 24 23 23 22 21 22 21 20 21 20 21 21 21 20 19 16 11 13 20 22 20 20 20 20 20 20 18 17 15 14 13 13 15 15 15 15 14 13 12 11 11 8 6 7 7 8 7 7 6 5 9 9 8 16 19 19 14 7 15 13 2 8 9 21 34 33 25 23 20 20 21 23 27 29 29 29 30 31
28 29 29 29 29 29 28 28 28 27 27 26 25 24 23 24 23 22 22 22 22 21 21 20 19 15 10 15 23 22 20 21 21 22 22 21 19 17 16 15 14 14 14 15 16 15 14 12 11 11 12 12 10 9 9 7 4 4 6 5 5 4 5 9 8 14 11 8 18 12 4 9 8 18 27 25 23 23 23 24 23 24 26 28 29 30 32 33
27 28 28 29 30 30 30 30 30 30 30 29 28 26 26 25 25 24 23 23 23 22 22 21 18 13 11 18 24 21 19 20 21 22 22 20 19 16 14 15 14 14 14 14 14 14 13 11 10 8 7 10 11 7 5 4 4 3 3 4 4 4 6 5 3 14 11 6 16 11 3 9 11 14 17 20 22 23 23 23 22 25 26 28 29 31 33 34
25 26 27 27 28 29 29 30 30 31 31 31 30 29 28 28 27 26 26 25 24 23 22 19 17 12 8 14 21 20 19 20 20 22 20 18 17 14 14 14 12 13 13 13 13 12 11 9 9 9 6 5 5 4 3 4 5 4 5 5 6 5 7 5 2 11 10 5 11 12 5 7 8 6 6 13 21 22 21 20 21 25 26 27 29 32 34 35
25 25 26 26 27 27 27 28 28 29 30 30 31 30 30 29 29 29 28 26 25 24 21 15 12 10 10 15 19 21 22 21 20 21 19 16 14 14 14 12 10 12 11 10 12 11 10 8 6 6 8 5 4 4 3 4 6 4 5 6 7 8 8 5 1 7 9 6 8 12 9 11 9 6 5 11 18 21 20 20 21 23 24 26 29 32 34 35
25 25 26 26 26 27 26 27 27 28 29 29 29 29 29 29 29 29 29 28 23 17 14 12 8 4 10 17 18 19 20 18 16 16 15 14 13 13 13 10 9 9 8 7 10 10 9 8 5 2 4 5 4 5 5 7 7 5 6 5 6 7 8 8 4 3 10 7 7 9 10 16 14 11 15 17 17 19 21 22 23 26 28 30 32 33 34 35
24 24 25 26 26 26 26 26 27 27 28 28 27 27 28 27 26 26 26 24 17 9 8 11 13 6 6 9 11 13 14 14 13 12 13 13 13 12 13 11 9 8 7 4 6 11 10 5 5 3 5 7 8 9 10 11 10 9 10 8 7 7 6 11 8 4 11 7 8 10 11 14 15 12 15 23 24 22 24 23 24 28 30 33 34 34 34 35
21 22 23 24 25 25 25 25 25 26 27 27 27 25 21 17 13 12 12 18 20 18 18 17 17 16 13 10 11 12 13 14 14 14 14 13 11 12 14 12 8 8 7 4 5 10 11 5 4 7 11 11 10 12 14 14 13 12 11 9 8 7 8 13 10 4 9 6 8 13 12 13 16 13 12 21 24 20 20 20 22 26 29 33 34 34 34 35
20 21 21 22 23 23 23 24 24 24 24 24 24 19 12 9 7 6 8 16 23 25 26 24 20 22 21 18 17 18 17 15 16 18 16 13 12 9 12 13 6 5 8 8 5 4 7 6 9 14 16 12 9 11 12 12 12 12 9 8 7 7 10 14 8 3 7 5 6 10 10 13 16 14 12 17 18 15 18 18 22 27 31 35 34 34 35 33
20 20 21 22 22 22 22 22 22 22 21 20 20 14 10 12 11 12 13 15 23 28 25 25 25 26 26 24 24 25 21 15 17 22 19 16 16 11 11 13 7 5 7 8 6 3 5 9 13 16 13 10 11 10 8 9 10 9 6 5 7 7 10 11 5 3 4 3 5 7 9 12 14 14 13 15 16 17 24 26 28 32 32 35 35 33 32 27
19 20 21 22 22 23 22 21 21 20 19 17 16 14 13 13 12 14 14 10 19 27 27 28 29 30 30 28 30 29 23 20 20 23 25 22 20 17 13 11 8 7 6 9 9 7 7 9 14 17 14 12 13 10 7 8 8 7 6 5 8 8 8 7 3 3 4 4 5 7 8 8 11 14 14 20 25 25 30 33 36 38 35 37 40 35 29 23
20 20 21 21 22 22 22 22 20 17 16 14 13 12 11 11 10 11 12 9 12 17 26 32 30 32 33 30 31 30 27 28 23 20 26 26 21 16 14 12 9 8 8 11 13 14 13 7 8 10 11 11 12 9 7 6 8 8 7 7 10 11 11 9 5 2 4 6 3 4 8 8 9 14 14 16 21 22 25 28 31 37 39 39 40 37 31 25
21 21 21 22 22 21 21 21 17 15 14 12 10 8 7 7 6 8 9 8 8 7 14 21 22 27 32 30 31 27 21 23 24 22 24 27 24 13 8 12 10 7 11 14 13 14 14 10 9 6 5 7 8 7 7 6 8 8 7 11 15 14 12 12 8 4 3 5 2 1 7 7 7 12 13 7 7 11 15 17 20 31 37 36 35 35 33 27
21 21 21 22 22 22 20 16 15 18 16 12 11 7 6 3 3 6 6 4 7 3 6 10 12 14 18 23 28 21 9 12 20 24 21 22 27 17 6 9 9 9 10 9 9 8 4 6 8 8 7 7 6 6 7 8 8 8 4 8 12 12 10 9 8 4 3 4 2 3 2 7 6 8 10 6 5 8 10 10 15 25 31 33 33 33 30 24
22 21 21 22 22 21 18 15 16 18 14 13 11 6 5 3 2 3 4 5 8 4 7 8 8 7 9 14 23 18 2 3 10 16 19 21 25 20 10 8 8 8 5 1 6 4 3 5 5 6 8 6 7 8 8 9 7 6 2 1 2 3 5 5 4 5 4 4 3 4 3 7 12 8 9 9 8 8 10 10 12 19 27 31 33 34 29 22
23 22 22 22 22 21 19 18 17 16 13 13 11 7 4 4 3 1 1 6 4 7 6 6 7 6 7 11 21 15 1 3 6 8 19 23 22 16 11 12 8 7 6 4 7 3 3 6 7 8 7 5 7 7 5 9 7 4 1 2 3 2 0 1 1 5 3 5 4 5 7 5 13 7 8 10 11 11 13 13 13 16 23 28 31 34 31 23
23 23 22 21 22 21 19 18 15 14 14 13 9 6 4 6 2 2 2 6 1 5 4 7 6 5 7 9 14 11 3 1 1 4 14 18 20 12 5 8 8 7 6 8 11 6 0 4 4 6 7 6 6 1 2 3 5 3 2 4 5 3 1 2 2 2 2 6 7 7 9 5 13 10 6 7 10 11 12 12 13 16 23 26 28 31 30 25
25 24 23 22 22 21 19 17 14 13 14 12 7 4 5 5 1 1 7 6 2 2 5 6 5 7 10 7 5 11 6 1 2 6 8 8 15 11 2 2 3 5 5 5 9 7 2 4 2 3 5 4 4 5 4 2 1 2 2 2 2 1 1 1 2 2 1 10 8 10 14 9 10 8 6 8 9 11 11 9 10 13 19 24 23 25 28 28
26 25 25 24 24 21 17 14 14 13 12 10 5 7 7 3 0 5 9 2 2 2 5 4 4 9 12 7 5 9 8 4 4 8 5 3 7 8 3 1 1 1 3 5 7 7 3 2 0 2 3 5 6 3 2 3 1 2 3 2 1 3 2 3 1 3 2 11 5 12 17 13 11 6 3 7 10 13 12 10 12 11 14 21 23 23 26 29
27 26 27 27 26 23 19 15 14 11 10 7 4 9 5 1 3 9 6 4 1 4 4 4 5 6 9 9 6 7 6 5 7 8 5 4 5 6 6 6 5 2 3 5 5 4 5 8 6 1 2 7 5 2 2 3 0 3 4 4 1 3 2 1 2 2 5 10 4 10 14 11 15 10 2 5 7 11 11 9 13 13 14 21 23 22 25 27
28 29 29 29 28 27 24 20 16 10 7 4 8 8 2 3 8 9 6 2 1 1 2 3 7 8 8 7 5 5 4 4 8 8 5 6 5 6 8 8 6 3 4 4 3 2 3 6 7 4 2 9 10 5 4 2 4 8 6 6 5 3 3 4 4 3 7 9 6 6 10 6 10 7 9 13 10 11 13 15 17 16 18 23 24 23 24 25
26 29 32 32 31 29 26 23 19 12 6 4 10 5 1 8 9 2 4 6 4 2 1 2 6 8 6 6 5 7 6 3 7 8 5 6 4 5 7 9 10 6 1 2 2 4 4 8 7 8 3 12 15 13 11 4 5 9 6 5 6 5 3 4 5 7 6 6 5 2 5 4 4 2 12 17 16 15 18 22 23 17 18 20 20 21 22 24
26 28 32 33 33 29 26 26 23 16 11 10 9 3 6 11 8 2 2 5 5 3 1 2 3 6 6 5 3 7 8 5 6 7 5 7 6 6 6 8 12 9 3 3 3 4 6 10 8 9 4 13 14 12 11 5 1 5 4 3 6 5 5 5 7 8 3 4 5 3 4 6 4 6 10 11 13 14 15 21 21 17 19 19 17 20 21 22
27 26 29 33 36 33 27 28 26 20 18 16 8 5 10 9 5 2 1 2 2 3 1 1 2 4 5 4 2 5 6 3 5 6 4 7 8 8 7 6 12 14 9 7 3 3 5 6 4 5 2 5 5 4 5 4 2 2 4 4 5 2 4 5 7 6 2 5 9 6 7 8 7 11 12 11 12 11 10 13 13 16 22 20 18 21 22 23
27 25 27 33 37 36 32 30 28 25 24 16 8 8 9 9 9 7 5 4 6 7 2 3 4 5 5 4 4 7 4 1 4 5 3 4 5 9 9 6 12 18 17 12 5 4 7 6 2 3 1 1 3 6 3 1 2 5 3 4 1 3 1 2 2 3 3 7 8 8 12 11 9 10 4 7 12 12 11 12 13 17 20 17 18 23 25 25
27 25 28 33 34 34 34 32 30 31 23 10 7 11 8 8 12 12 11 11 12 10 6 6 4 5 5 5 4 7 7 4 5 5 4 4 4 9 10 8 11 19 23 20 7 4 5 5 3 1 1 1 4 3 2 3 1 5 2 2 2 1 1 2 3 2 5 7 7 11 15 13 12 11 6 2 11 13 14 16 15 15 13 12 19 25 26 25
24 20 22 30 29 26 29 33 33 30 16 5 8 10 5 7 11 12 14 13 9 7 7 8 7 5 6 8 6 3 8 8 6 5 5 5 5 7 11 9 9 15 23 21 10 4 3 4 4 1 2 1 2 1 4 3 2 2 2 3 1 3 3 4 4 3 5 7 8 10 13 13 10 8 8 7 11 13 14 13 11 10 11 16 22 25 26 25
16 11 14 23 20 15 20 28 28 21 8 3 8 8 4 5 7 13 21 18 8 6 7 7 8 8 9 11 10 6 6 7 6 5 5 5 5 5 8 9 6 10 18 17 11 6 1 3 6 1 2 1 2 4 8 7 6 4 2 3 3 2 1 1 3 4 5 7 7 7 10 14 6 2 5 8 11 12 11 9 8 8 13 21 25 27 28 27
12 7 10 18 15 10 17 22 17 10 4 2 6 9 8 7 5 7 17 19 12 11 10 7 8 9 9 9 10 8 5 5 4 5 5 5 6 4 4 9 7 6 7 5 6 6 3 4 7 3 2 6 8 7 10 13 10 8 8 9 9 7 4 3 7 7 5 5 6 7 10 15 6 5 1 6 10 10 9 9 9 9 16 23 24 25 26 26
11 6 9 14 11 13 22 16 7 7 5 5 10 10 7 8 9 10 13 14 11 8 6 6 9 11 10 11 11 10 8 6 6 6 4 4 7 4 1 6 8 8 7 3 7 8 4 2 5 7 7 10 11 6 7 10 8 5 6 8 8 8 7 8 9 7 4 4 6 6 10 16 7 6 5 1 7 9 10 11 8 11 21 24 22 24 25 24
12 10 11 13 12 18 21 8 4 8 4 5 12 11 9 7 7 10 12 12 10 7 5 7 9 12 12 10 9 8 7 6 8 10 9 9 7 6 14 15 7 3 3 2 3 3 2 3 4 7 6 6 7 3 2 1 0 3 5 5 6 7 8 9 7 5 5 5 6 8 12 14 7 3 1 4 6 8 11 14 12 12 19 22 21 24 25 25
13 15 15 15 14 20 16 4 4 8 6 7 9 11 15 13 9 11 11 10 10 6 6 9 10 10 9 7 7 7 5 4 6 9 10 9 7 10 20 21 14 5 2 3 3 2 2 2 4 6 6 4 5 5 3 3 2 2 5 5 6 7 8 8 5 4 7 9 11 12 12 11 7 2 6 7 7 7 8 13 16 15 17 20 22 24 26 27
11 12 14 17 24 29 21 11 10 8 8 11 11 13 15 10 12 21 20 15 14 10 6 7 7 7 6 5 6 9 10 8 6 5 4 5 7 13 18 15 9 5 3 6 8 5 3 1 3 6 8 8 8 7 4 1 0 1 3 6 8 9 10 9 6 7 9 11 14 15 12 12 12 10 11 12 12 11 11 13 16 16 17 20 23 25 27 28
7 5 6 12 27 34 26 20 16 8 7 11 8 9 14 10 11 22 23 16 16 18 13 6 3 4 6 8 9 10 12 11 9 6 4 6 7 8 11 10 4 3 6 8 14 8 1 2 3 5 7 7 7 7 8 7 6 6 7 9 10 9 10 9 8 9 10 11 14 14 14 16 18 19 22 22 21 19 17 16 15 16 18 22 24 26 28 30
6 4 3 4 13 21 20 19 16 8 9 13 5 5 15 16 10 13 18 16 17 20 14 7 7 7 7 10 11 11 12 12 11 11 10 11 9 7 11 12 8 12 14 6 4 3 1 3 6 8 11 11 9 12 15 15 15 15 16 16 14 12 11 11 11 13 13 13 14 14 16 19 19 20 25 27 25 22 18 16 17 20 23 23 24 26 29 29
7 7 9 6 2 6 8 12 14 11 11 14 9 7 15 18 13 11 14 14 17 16 9 6 12 15 15 15 12 10 10 10 10 11 11 13 12 9 11 12 15 20 17 7 5 4 2 6 11 12 16 18 16 18 21 20 20 19 18 19 19 19 18 16 18 20 18 16 15 15 19 24 21 20 22 24 23 21 19 21 25 28 30 27 23 23 25 24
10 11 13 12 6 3 9 12 11 10 11 11 9 10 15 17 18 16 12 10 11 13 12 11 13 17 21 21 15 12 11 9 10 11 10 12 13 10 7 8 14 20 16 8 6 7 4 6 12 15 18 19 20 22 24 24 23 21 21 21 21 23 23 23 24 25 23 23 23 24 28 28 23 21 22 25 27 27 29 33 36 36 37 35 28 23 25 23
10 9 10 13 9 9 16 16 9 6 8 9 7 8 13 17 19 16 12 12 10 8 13 18 19 18 20 21 19 17 17 16 18 17 14 12 11 8 7 7 8 8 9 8 5 6 7 7 11 13 12 15 20 22 23 23 22 23 24 22 21 23 26 26 25 22 21 23 26 27 26 23 20 22 24 27 31 33 31 32 36 38 40 37 30 26 27 26
13 13 12 11 7 8 12 10 6 5 5 6 6 6 9 14 16 15 13 18 20 14 14 19 23 19 17 20 21 22 23 24 25 26 24 20 16 12 9 9 9 6 6 7 5 6 8 7 7 8 8 10 16 20 23 23 22 23 23 22 23 25 25 23 22 21 20 22 23 22 18 15 17 21 21 21 26 28 26 26 31 37 39 35 27 24 26 29
13 16 16 11 6 6 8 6 6 8 6 5 7 8 9 11 12 13 12 15 22 24 20 19 18 15 15 20 23 25 29 32 35 40 41 38 33 28 20 16 16 11 7 7 5 5 7 6 5 7 8 9 13 18 20 18 15 14 17 24 30 29 25 22 20 23 24 22 18 16 15 17 19 18 17 21 25 24 23 26 28 31 35 34 27 24 28 34
Wind_Direction
320 323 328 333 336 340 344 346 347 348 351 351 351 353 349 345 341 335 334 330 328 328 331 332 329 325 314 301 292 285 283 281 280 277 269 260 252 256 257 255 260 256 264 279 297 347 307 300 278 212 221 246 246 227 234 234 214 211 198 226 240 246 249 249 316 6 36 360 124 179 189 213 216 183 211 230 230 231 236 239 232 231 235 238 240 240 240 242
316 317 320 326 327 329 335 336 339 342 344 345 348 350 350 350 347 343 338 333 325 320 319 318 317 317 316 310 300 290 283 282 281 272 265 262 255 254 250 242 244 245 250 249 259 334 273 282 270 213 215 235 237 217 225 224 198 210 231 246 244 261 262 264 338 351 1 326 326 196 192 225 243 187 197 221 227 221 229 239 231 228 231 235 238 239 242 243
312 314 316 319 321 324 328 330 332 335 338 339 340 342 344 346 346 348 345 342 336 328 320 314 311 309 310 310 308 299 290 288 280 272 267 263 255 250 247 241 238 241 243 246 262 269 245 262 261 223 221 233 231 211 214 213 196 219 226 260 252 278 318 312 335 311 300 315 311 283 217 210 242 218 182 210 240 221 223 229 219 219 225 231 236 237 240 241
309 310 313 316 318 320 323 327 329 332 335 335 337 339 340 342 342 343 344 346 344 339 332 323 317 310 307 306 308 307 302 294 276 275 277 266 254 247 243 239 236 239 242 245 256 262 259 271 271 235 227 240 237 212 202 203 197 214 201 228 262 282 331 316 355 293 268 286 284 289 274 218 241 236 202 210 249 242 234 232 222 223 230 229 231 238 242 242
304 306 309 312 314 318 321 323 325 329 333 333 335 335 337 340 340 341 341 344 344 343 340 334 328 321 316 307 304 305 305 302 272 285 305 281 252 241 237 236 234 237 241 244 248 261 285 284 263 239 231 252 244 214 215 215 206 233 230 240 261 264 278 306 351 218 231 238 261 275 268 248 245 233 219 211 223 243 237 236 233 230 236 234 231 238 241 242
298 301 303 306 309 313 315 317 320 323 327 328 331 332 333 335 337 338 338 339 340 341 340 336 333 328 324 313 300 289 260 251 275 301 321 314 273 242 234 235 234 237 240 243 248 257 285 270 238 233 232 250 247 235 237 214 199 230 251 245 260 265 263 275 256 236 238 239 241 249 258 256 248 239 229 220 230 245 243 240 250 236 230 234 235 236 236 239
293 295 297 300 301 304 307 309 312 315 319 321 323 324 326 328 331 333 332 334 335 335 336 333 331 327 324 311 295 279 248 252 272 281 290 298 287 254 238 235 235 239 241 243 246 256 275 258 241 244 243 246 254 257 237 187 185 224 262 261 273 276 260 257 254 241 240 238 238 246 267 255 238 243 243 235 240 249 252 250 257 253 234 230 233 234 237 241
289 291 291 293 294 296 298 300 303 306 310 311 315 316 317 319 321 323 324 325 326 328 329 328 328 328 325 310 299 287 259 261 275 281 285 289 280 262 247 239 239 243 244 243 240 244 262 261 257 259 257 260 290 304 246 168 196 220 248 258 270 278 261 257 250 241 241 240 240 248 259 249 241 250 261 253 250 252 252 250 250 253 249 240 238 239 240 242
288 288 288 289 290 291 291 293 295 297 300 302 305 306 308 310 312 315 315 317 319 320 322 323 324 326 324 311 299 283 270 273 280 281 285 286 275 261 250 246 246 246 245 244 236 231 242 259 268 269 293 295 302 307 281 221 215 225 260 274 288 289 279 269 248 234 234 237 231 234 247 248 248 256 266 258 255 255 251 245 243 245 248 243 242 244 243 244
289 288 289 288 288 289 289 291 291 292 294 295 297 298 300 302 304 307 308 312 313 315 316 318 321 322 318 308 276 255 285 288 284 283 284 283 276 261 252 250 251 248 245 244 238 231 232 249 265 275 299 297 292 284 255 222 251 287 301 301 297 286 279 270 255 239 230 231 218 214 240 251 248 238 257 260 258 256 249 243 240 238 243 242 239 241 244 246
291 290 290 289 290 290 290 292 292 292 292 292 294 294 295 295 298 300 302 306 307 310 312 313 318 317 310 297 238 245 286 291 287 290 288 285 279 267 259 253 251 247 242 238 238 238 231 237 252 266 281 277 294 287 244 225 260 288 310 306 284 276 271 257 249 241 229 230 217 212 248 257 242 202 244 257 255 246 239 236 235 230 236 241 238 236 239 244
291 291 291 291 291 291 291 293 293 293 292 292 293 293 294 294 294 296 298 300 302 304 306 309 313 311 306 281 254 265 286 287 284 288 286 285 278 269 265 258 253 246 241 237 240 245 240 241 245 246 257 264 301 298 247 245 280 290 298 299 279 274 269 249 239 228 217 222 207 198 268 257 224 218 246 256 251 238 232 228 228 225 229 236 238 236 235 242
289 290 290 290 290 291 291 292 292 292 292 291 291 293 294 293 293 294 295 296 298 299 302 306 309 307 296 270 273 283 288 284 283 283 282 281 275 268 263 259 255 248 244 239 238 245 246 248 244 238 251 261 275 276 278 291 291 279 259 253 275 284 269 249 237 212 200 196 178 165 263 257 225 222 242 259 248 230 229 228 226 223 226 232 238 239 238 240
288 288 289 289 289 290 290 291 291 291 290 290 290 291 292 293 293 293 293 294 295 296 298 302 304 301 276 271 285 286 279 279 278 276 277 276 271 266 260 255 254 249 246 243 241 247 247 248 247 245 254 248 250 272 288 288 257 254 269 249 252 275 270 264 226 178 176 181 169 160 251 259 261 230 235 255 241 220 220 223 223 222 226 233 239 241 241 242
288 289 290 290 290 291 291 291 291 290 289 288 288 289 290 290 290 291 292 292 292 293 295 298 298 289 267 275 284 281 276 274 271 272 274 271 267 263 256 250 251 249 246 244 243 246 246 244 240 241 255 244 244 271 292 271 240 209 251 260 227 230 261 281 169 167 171 175 174 169 246 250 265 257 246 245 226 209 212 219 221 223 228 236 242 244 244 245
288 290 291 292 292 293 294 295 294 293 291 290 289 288 287 287 287 288 289 289 290 291 291 291 287 278 263 275 278 275 273 268 268 272 272 269 261 252 251 251 250 248 245 244 244 244 242 239 237 239 247 241 222 232 267 271 263 212 198 245 240 237 262 267 195 190 179 137 184 197 232 250 245 246 226 208 205 202 209 217 220 226 231 236 244 246 245 247
287 289 290 291 292 293 295 297 297 296 295 295 294 291 289 286 284 285 286 287 287 286 284 278 275 272 257 266 271 268 267 266 269 272 271 266 251 241 246 248 245 245 243 243 244 240 233 226 226 240 237 232 217 209 242 256 258 239 208 236 240 238 256 254 272 225 194 148 196 211 234 254 248 238 218 193 196 202 212 221 229 239 240 242 248 248 246 246
288 289 289 290 291 292 294 295 296 296 297 298 300 300 297 293 288 285 283 283 281 280 279 251 231 261 258 255 257 258 264 269 271 272 268 252 238 236 234 232 237 240 234 239 242 224 214 217 205 231 245 224 215 200 207 228 236 248 241 255 260 246 247 252 281 209 189 188 215 213 231 250 256 260 259 249 227 216 223 232 243 252 254 254 254 252 250 247
290 290 290 291 291 292 294 295 295 296 297 297 300 303 303 302 295 287 280 272 258 247 264 226 199 210 252 248 247 251 263 271 272 270 261 241 229 229 221 218 219 212 206 211 220 200 189 196 198 219 248 224 210 205 215 231 240 259 266 268 269 268 263 264 277 185 178 200 221 218 231 246 253 251 253 260 255 242 241 242 242 248 252 255 255 254 253 250
294 294 293 293 293 295 297 297 297 298 299 299 302 308 313 315 304 291 272 254 246 248 258 241 219 232 248 254 257 258 263 269 270 263 257 240 223 223 217 211 204 206 216 200 185 187 183 186 204 219 236 229 216 216 225 237 245 257 265 267 266 273 271 268 277 210 185 200 217 223 233 244 254 253 248 258 261 256 253 251 246 246 250 253 255 257 255 252
303 301 300 299 298 300 301 301 301 301 303 303 308 316 319 312 299 293 285 270 268 267 263 258 247 244 248 251 253 260 264 267 265 255 254 238 219 218 206 197 190 207 219 218 216 191 187 209 219 225 238 242 237 236 237 242 248 253 257 267 271 266 268 272 278 205 186 204 229 235 245 250 256 260 257 256 257 253 253 255 254 253 255 258 260 260 259 256
309 308 308 307 305 307 308 308 307 304 306 306 308 313 301 292 286 281 289 284 275 271 264 261 253 245 246 246 249 257 257 257 255 245 245 234 216 209 193 185 197 213 194 205 229 226 214 230 232 236 247 255 256 255 257 262 261 264 267 276 274 268 276 279 271 186 179 197 237 250 255 258 263 264 261 255 251 247 248 251 255 256 257 260 262 261 260 255
311 312 312 312 312 315 316 317 315 311 309 306 304 302 293 293 290 284 284 275 274 270 259 253 247 242 243 243 247 251 244 244 247 241 244 235 206 202 200 186 207 222 187 192 212 223 229 228 231 241 249 252 255 249 244 268 266 251 250 262 266 260 267 277 249 197 207 212 244 273 268 261 268 268 262 253 251 251 250 250 254 256 257 259 262 261 258 249
313 315 314 316 317 319 323 322 320 319 317 314 307 299 292 291 288 295 291 269 270 264 256 256 246 239 241 242 246 244 238 242 242 239 241 227 197 196 211 208 215 225 215 212 216 229 241 231 212 230 238 236 246 243 227 250 259 241 220 229 253 253 248 255 250 200 222 237 249 306 289 264 244 252 259 254 248 248 246 244 249 254 256 258 260 261 256 246
312 313 315 318 318 323 328 325 324 330 327 321 315 307 304 298 278 301 313 279 259 237 245 250 238 236 238 237 238 234 236 244 238 235 234 217 198 190 206 210 214 225 224 225 230 239 246 234 205 204 218 214 226 239 212 210 257 261 212 213 239 251 254 258 274 320 307 268 220 138 283 269 207 226 251 254 226 233 237 232 238 247 253 256 257 257 254 245
308 309 313 314 317 324 329 328 327 329 326 315 313 308 295 284 255 305 334 289 263 180 170 206 212 228 228 224 220 212 236 252 231 229 225 212 205 198 198 201 208 233 224 223 242 247 237 206 196 200 216 215 221 246 216 198 254 273 227 216 238 251 260 262 272 284 260 265 240 138 273 285 253 231 245 240 201 223 230 221 230 238 245 251 251 254 258 246
303 305 309 310 314 321 323 324 325 327 325 312 311 306 279 231 196 326 357 283 264 149 138 177 181 192 198 203 195 185 230 240 196 211 206 203 203 200 212 204 198 228 203 150 255 235 127 144 167 197 213 216 223 244 222 194 231 266 262 256 240 246 259 257 255 239 236 289 275 161 143 280 277 248 218 220 214 227 234 228 235 236 238 243 246 253 260 248
300 301 303 305 308 312 315 319 325 329 323 313 308 288 257 194 178 26 346 273 262 120 134 178 176 189 178 172 181 182 350 114 146 197 194 195 196 194 223 226 219 222 169 167 239 257 107 177 200 197 192 213 222 236 214 184 209 251 37 58 88 92 311 101 228 245 281 316 266 185 152 242 276 255 185 204 213 224 235 232 236 239 237 236 237 247 254 245
293 294 295 297 300 304 308 311 320 329 320 316 309 274 218 179 183 24 243 257 276 105 136 163 167 185 157 150 188 212 292 77 158 187 181 192 194 189 234 239 248 260 213 207 233 261 121 180 208 184 180 220 216 60 24 179 209 219 120 72 77 78 46 89 219 251 337 285 244 188 163 206 274 267 184 193 211 216 230 232 234 238 239 236 232 237 243 239
286 288 289 288 291 295 302 304 311 327 325 317 297 236 173 173 174 269 236 249 328 93 120 145 162 151 144 131 205 227 232 230 99 135 157 190 197 199 279 276 264 279 263 256 256 257 182 102 36 200 192 193 128 76 28 48 150 166 120 66 53 310 22 76 237 108 24 269 241 188 184 192 267 273 166 183 203 200 211 222 229 237 240 239 234 230 231 232
282 282 280 278 280 285 290 294 303 321 329 317 274 175 163 166 101 234 235 257 352 178 120 145 163 140 155 170 199 205 207 214 142 147 168 171 190 206 239 224 163 307 294 283 269 260 219 149 47 233 182 125 102 87 32 45 73 116 114 112 345 300 17 35 292 104 212 265 236 178 187 192 234 262 136 192 200 192 202 208 214 224 232 235 234 228 226 227
280 276 273 272 273 275 271 270 285 306 325 313 204 164 165 234 234 235 235 57 40 203 145 158 168 157 184 205 210 176 174 197 168 174 198 162 178 200 202 202 163 142 264 242 245 254 243 229 201 173 185 165 146 97 30 6 351 151 140 137 120 284 304 324 251 147 221 257 244 178 181 199 236 248 226 234 213 197 211 214 207 206 214 226 229 228 225 222
280 277 270 263 264 268 265 267 273 276 307 290 176 152 89 252 235 230 214 180 250 203 107 148 175 182 184 196 218 167 170 212 165 179 204 170 198 219 212 220 197 210 240 207 226 226 265 262 183 155 259 186 169 171 214 257 189 180 163 149 167 208 245 249 240 241 240 257 275 188 175 213 264 250 208 220 223 204 206 217 216 205 204 217 224 224 220 217
273 277 272 263 261 262 259 263 261 246 258 203 165 133 122 232 244 219 174 211 241 269 15 79 167 186 192 201 199 158 177 229 160 173 196 165 197 230 214 222 219 232 241 180 260 182 244 286 181 164 203 177 180 206 210 168 162 198 178 160 195 194 206 236 231 245 259 279 288 187 165 219 275 212 194 206 220 210 198 210 219 214 212 221 222 215 211 213
267 274 274 266 259 256 250 253 248 231 217 185 157 152 203 227 250 252 237 250 249 238 295 14 159 185 223 233 200 176 201 228 165 166 197 184 200 216 200 203 206 208 166 187 254 169 229 272 191 161 151 162 182 220 204 131 120 217 147 157 234 205 194 244 256 252 286 324 276 219 212 239 258 264 228 212 222 217 203 208 212 213 219 223 212 201 205 214
267 268 270 264 257 256 250 248 245 228 204 177 152 208 220 232 246 225 311 358 301 293 21 292 212 189 232 234 199 209 221 246 179 167 209 214 224 225 203 185 191 197 190 187 221 185 226 278 173 139 39 151 176 256 195 160 209 188 133 193 234 165 166 227 274 285 307 284 273 258 253 271 301 282 247 213 215 215 207 211 207 211 219 216 205 202 210 218
274 271 267 260 258 258 251 246 245 226 202 176 166 211 221 238 238 242 293 332 318 313 296 241 220 185 224 234 208 203 189 262 192 174 198 209 227 221 210 206 186 189 202 203 218 232 227 265 203 146 326 289 343 332 298 276 126 132 173 223 245 29 86 172 269 309 272 257 273 276 270 278 287 280 258 182 206 210 204 209 209 213 216 211 206 211 220 225
281 279 270 264 262 258 251 249 238 216 198 180 206 220 221 234 230 234 261 282 296 293 273 263 231 182 221 249 228 182 170 187 182 175 212 213 218 199 190 210 190 187 205 209 222 271 220 246 264 123 326 351 14 341 299 314 138 143 197 261 101 125 221 164 176 227 247 251 269 277 278 276 254 261 299 217 203 203 203 209 210 210 210 207 213 220 226 227
279 276 270 272 268 258 255 248 225 200 185 179 217 224 237 252 248 243 253 275 304 283 261 271 263 247 260 269 275 196 176 193 181 176 209 209 225 194 172 193 199 192 202 200 209 252 200 222 251 328 331 349 22 244 191 240 254 110 357 334 116 169 182 179 188 195 220 240 262 275 281 277 252 247 263 224 190 195 204 209 211 208 208 210 216 223 226 226
278 266 264 273 270 261 251 232 205 182 175 206 213 227 251 274 272 251 248 258 282 274 264 275 272 271 275 275 282 272 209 208 203 205 215 198 226 229 178 182 191 198 204 200 205 221 173 225 233 306 345 256 220 196 180 194 204 181 232 250 215 198 145 208 241 219 212 227 244 254 267 270 264 166 217 196 179 196 199 198 211 214 218 219 219 223 226 226
276 261 266 271 269 242 212 200 185 177 198 217 218 236 246 254 269 254 249 250 253 262 270 277 273 275 285 281 282 291 270 244 228 225 228 214 237 265 185 186 186 173 186 195 207 205 179 215 217 203 235 238 243 218 194 207 209 193 203 213 213 202 179 238 247 230 218 226 233 237 257 263 266 65 71 183 178 193 187 187 208 214 222 226 226 228 229 229
258 248 267 268 257 206 189 181 184 201 199 209 219 226 229 235 245 249 250 247 247 259 269 275 266 261 270 270 269 282 285 284 282 259 254 253 249 274 301 225 208 163 151 187 219 206 171 162 218 226 231 250 262 244 199 219 228 229 227 218 216 203 189 220 236 236 239 230 233 246 255 259 268 48 21 236 173 180 180 185 202 214 221 226 227 228 230 233
240 241 255 261 248 206 191 182 210 207 214 242 230 229 225 222 237 242 240 235 235 241 237 245 249 244 249 254 257 273 280 277 272 264 282 297 281 330 355 344 325 203 187 287 268 209 132 120 218 244 258 280 286 296 23 357 307 266 260 230 217 217 215 228 233 240 245 221 225 247 250 258 274 74 208 226 167 167 182 186 195 212 217 221 223 226 230 236
249 252 250 251 236 209 198 195 214 212 230 239 236 238 233 233 238 239 235 219 210 214 227 233 233 231 239 244 246 254 251 249 254 254 272 288 285 318 337 342 346 343 337 360 349 294 286 196 205 242 266 277 275 270 287 352 36 256 256 245 238 240 244 254 258 260 254 235 235 249 252 261 277 205 196 209 188 191 208 209 216 224 223 224 230 236 239 240
272 259 243 230 212 203 206 218 222 227 223 225 237 239 236 243 235 233 238 235 223 218 224 233 224 219 231 243 248 245 231 225 239 252 258 263 272 287 297 311 342 14 29 28 20 358 316 279 205 225 241 241 244 251 256 285 8 255 260 249 246 241 238 249 256 246 247 240 238 248 257 265 275 273 258 250 244 246 253 248 241 240 237 234 237 243 243 241
275 254 231 216 203 206 218 224 223 230 216 222 239 231 232 246 240 235 239 243 240 232 231 239 218 210 224 228 240 249 238 224 221 228 228 228 245 258 256 264 308 300 289 3 26 33 35 291 271 247 250 249 249 269 292 296 278 272 269 253 250 250 243 246 250 244 252 255 247 248 258 265 270 273 271 267 266 267 270 271 268 263 256 245 240 243 244 243
262 253 228 213 204 215 229 226 220 219 207 215 213 194 226 234 235 235 230 229 235 231 232 237 209 204 216 217 229 244 241 231 222 223 234 239 242 243 243 251 269 269 268 291 12 48 109 241 259 266 265 261 260 267 274 277 269 264 265 261 263 265 256 253 252 249 253 258 254 252 259 263 261 261 267 271 273 274 272 272 274 273 268 255 243 242 242 243
255 265 255 272 254 213 230 230 230 233 216 214 210 208 231 233 226 222 220 226 229 218 218 236 216 216 225 223 228 236 231 231 225 219 230 240 242 248 253 253 250 250 251 244 212 181 158 231 234 243 250 248 248 251 252 256 256 252 252 253 256 257 253 250 250 247 245 249 259 260 257 259 259 257 263 270 273 277 278 277 276 275 273 266 252 246 248 247
271 283 279 292 311 300 304 298 279 263 237 227 223 221 232 236 231 225 218 227 232 211 213 235 225 218 225 228 231 236 229 230 231 222 222 229 231 236 248 248 243 240 234 226 207 167 160 232 226 229 243 240 236 239 238 241 247 248 247 244 246 251 251 248 247 246 244 246 253 255 253 256 260 261 263 266 270 275 279 279 277 274 272 270 261 256 262 261
267 281 300 314 317 304 304 300 292 287 261 250 247 233 239 243 240 238 222 218 231 208 207 231 235 225 223 225 228 232 228 226 236 237 230 228 224 215 226 237 240 234 213 208 207 178 186 213 207 217 243 239 234 237 235 235 240 244 248 246 244 248 249 247 247 247 245 246 246 248 253 257 261 261 261 265 269 272 273 274 273 270 270 269 266 265 270 272
264 273 291 309 309 297 298 286 270 283 265 246 250 250 255 252 249 256 246 234 240 235 216 228 235 231 229 229 229 233 232 227 234 240 240 242 237 215 210 212 205 205 198 192 189 184 198 215 204 212 241 235 230 235 236 235 236 238 245 249 244 242 241 240 241 241 241 244 246 247 250 251 252 254 258 263 264 264 264 265 267 269 270 270 270 271 274 276
276 279 282 290 287 270 279 286 280 276 266 249 256 259 261 269 273 276 269 252 245 248 252 253 248 246 242 235 234 241 243 240 241 242 242 245 243 234 229 218 201 196 188 184 191 185 189 210 212 214 241 242 231 234 236 235 236 232 231 234 236 237 239 241 245 245 243 242 244 246 244 243 246 249 255 259 259 258 257 257 261 270 274 275 275 273 272 274